RH
54 55 41 51 67 81 99 86 50 82 81 81 87 34 22 20 18 21 28 26 25 30 31 34 40 32 46 70 70 40 71 94 39 36 64 77 79 79 79 75 81 70 64 58
25 31 40 41 40 80 100 82 70 58 46 63 52 28 25 28 21 24 46 35 80 86 76 72 71 87 100 62 38 54 51 33 36 70 67 72 68 70 78 89 79 74 63 59
38 54 37 24 49 52 92 82 73 56 39 26 26 23 23 26 18 21 36 52 89 99 92 96 92 85 58 47 49 43 42 48 56 68 74 71 67 70 72 75 73 60 57 49
31 26 20 23 25 24 30 65 67 46 26 36 35 41 27 20 26 27 70 92 100 100 99 100 99 78 50 45 47 47 51 62 72 72 69 71 72 74 72 69 58 48 38 33
21 16 16 18 21 17 17 21 26 23 25 32 38 68 53 42 27 40 81 93 99 99 85 100 97 78 64 62 59 62 73 72 70 71 76 73 70 67 54 40 29 32 35 32
22 25 24 26 26 27 23 25 25 24 24 23 27 36 53 48 68 73 100 98 95 66 60 59 75 75 71 69 66 77 75 72 76 74 60 44 30 26 24 25 28 31 28 29
11 11 11 12 12 13 14 14 15 16 16 22 38 70 67 70 77 88 92 60 42 58 79 92 75 87 72 70 73 78 78 78 65 41 27 22 22 24 27 26 26 27 27 28
11 12 15 17 17 18 20 22 23 27 31 74 57 48 67 70 72 72 33 70 79 99 91 65 75 65 63 65 58 37 30 24 16 17 20 23 22 21 21 26 31 34 36 36
25 26 18 20 21 25 27 30 30 30 33 34 34 34 33 32 35 40 93 99 91 78 57 69 72 64 61 32 29 33 19 19 22 24 27 30 30 31 36 39 39 40 39 37
24 24 28 27 30 29 22 17 17 19 19 23 24 24 24 30 36 46 48 51 50 52 73 77 58 40 29 33 34 25 24 28 28 32 39 40 39 39 42 44 43 41 36 22
24 28 31 29 22 20 17 18 19 19 18 19 22 20 25 27 26 32 37 48 68 87 76 51 30 32 38 43 41 42 42 40 45 50 44 39 46 53 50 47 45 32 18 12
30 27 28 23 22 16 17 17 18 19 19 21 21 21 19 20 23 28 37 41 50 100 90 45 38 48 56 52 50 49 47 48 46 40 44 49 52 53 52 48 33 19 13 9
26 25 25 26 21 18 16 14 14 14 16 18 23 23 19 20 22 27 37 47 54 75 77 52 54 63 62 51 47 49 52 53 52 52 50 51 52 54 50 36 20 13 9 8
27 25 24 24 21 18 16 16 17 17 16 16 19 23 22 22 25 30 37 48 61 62 54 59 67 64 49 49 54 56 56 52 43 50 54 55 56 52 36 19 14 9 8 12
28 23 21 20 19 18 20 21 20 19 18 17 18 19 23 28 31 36 35 38 40 46 57 66 57 53 58 61 63 57 47 40 46 49 53 55 53 40 23 16 10 9 13 15
26 23 21 22 23 24 24 23 22 20 19 19 18 18 21 26 28 32 41 50 54 58 65 62 65 68 68 63 54 45 45 45 48 53 60 54 41 26 18 10 8 13 15 18
20 20 20 21 23 24 24 24 23 20 18 19 18 18 21 24 28 37 47 54 64 73 77 80 84 80 73 60 52 45 44 50 54 62 54 38 24 18 11 10 14 18 19 28
18 16 16 19 22 22 22 24 24 20 18 20 20 22 23 27 31 42 46 55 73 87 90 91 86 74 62 53 44 43 49 57 63 55 39 26 18 12 10 15 19 23 23 31
20 16 18 22 22 22 21 24 23 19 21 23 25 33 28 30 37 45 51 57 70 80 84 88 72 58 49 45 41 44 54 63 58 45 34 19 12 10 16 19 26 42 53 77
25 24 24 23 23 21 21 23 23 22 24 28 34 38 34 34 39 48 51 58 72 79 78 67 59 53 47 38 37 42 57 62 53 36 22 13 11 15 19 23 43 66 84 81
23 24 24 24 22 21 22 23 23 21 25 43 45 36 36 37 45 48 55 74 86 87 73 64 58 48 40 38 42 62 68 61 40 19 14 10 13 18 20 25 59 71 73 80
23 23 24 23 23 21 23 23 22 24 29 36 43 36 38 40 45 46 63 82 82 73 66 60 52 46 47 51 65 72 64 46 21 14 11 12 17 18 21 37 66 69 72 80
20 24 23 23 22 23 22 23 23 26 28 48 48 42 38 40 42 55 77 77 72 67 65 62 56 55 64 76 78 67 50 23 16 12 12 14 17 18 23 51 67 62 68 87
24 23 22 23 26 25 25 25 24 26 41 51 43 40 36 42 54 72 66 64 70 68 64 62 61 65 75 78 69 51 25 19 14 12 14 15 15 21 30 62 79 70 74 86
38 29 29 22 27 27 27 28 30 47 50 43 44 38 40 59 77 71 68 74 71 70 70 69 70 76 79 72 51 28 22 16 12 14 16 14 16 27 38 64 81 72 66 86
43 46 47 44 45 32 34 44 48 43 40 40 32 35 59 84 82 76 85 87 87 81 75 76 83 84 72 50 30 26 19 14 13 15 17 14 22 38 47 51 67 69 70 85
Wind_Speed
24 25 25 24 18 15 6 3 6 6 3 6 13 13 13 7 6 7 10 13 16 19 21 22 23 26 29 29 33 41 41 41 49 46 40 37 40 42 47 50 49 50 51 52
22 21 21 19 14 10 10 8 7 6 4 8 17 15 14 17 13 12 11 10 16 22 23 25 26 27 26 37 40 42 43 45 44 36 40 43 45 47 47 46 52 55 57 58
15 13 15 12 10 10 17 14 12 8 4 8 11 12 15 17 18 14 10 13 19 23 20 18 23 28 35 39 40 42 43 43 44 45 45 47 45 45 48 52 55 59 61 64
12 12 10 8 8 7 9 18 19 12 8 12 15 17 21 24 22 22 19 16 17 23 17 19 28 35 37 38 39 42 44 45 45 45 44 44 46 48 51 54 58 61 65 69
11 12 11 11 11 10 11 13 16 15 14 14 18 23 26 28 27 24 21 18 16 27 26 29 37 37 37 37 39 39 40 41 43 42 43 45 47 51 54 58 62 66 69 73
12 12 11 11 12 11 11 12 13 15 14 14 20 23 29 28 27 27 25 27 29 34 33 33 35 38 39 42 36 36 39 39 38 41 42 44 48 53 58 62 66 70 72 76
10 10 10 10 11 13 12 13 15 16 16 17 17 23 28 31 31 30 28 32 35 35 39 35 37 41 41 32 29 33 36 39 41 41 43 48 54 59 63 67 72 76 82 85
11 9 9 9 8 6 6 5 6 8 9 12 17 22 24 28 31 34 37 30 29 33 38 42 43 41 35 28 27 27 30 33 39 46 53 58 64 67 72 75 77 82 84 87
9 9 8 7 5 4 2 1 2 4 7 13 18 22 26 28 31 33 31 28 37 43 45 31 35 33 32 31 32 34 37 43 50 56 63 67 70 75 79 81 84 85 86 86
10 8 6 7 7 5 2 2 3 6 6 11 15 19 24 27 32 34 37 38 40 36 29 33 31 30 33 37 39 42 48 53 58 64 69 72 76 80 84 86 88 87 86 85
10 10 8 7 6 3 3 4 6 10 12 13 16 18 22 27 30 31 30 28 28 29 35 34 34 38 41 44 45 49 54 59 64 68 71 75 80 83 85 86 85 84 86 86
10 9 9 7 4 2 1 5 8 10 12 14 17 19 23 27 30 30 30 31 29 32 38 39 41 44 46 47 50 54 59 65 68 70 74 79 84 87 88 89 87 88 89 87
10 8 6 5 4 3 3 7 10 13 15 17 18 21 25 24 25 27 31 32 30 31 38 42 43 47 49 50 54 58 64 67 70 74 79 84 87 90 90 89 89 89 88 82
11 8 6 6 6 6 10 11 12 15 17 19 21 22 28 26 27 29 29 30 31 37 42 43 47 49 50 54 59 64 67 71 76 80 84 86 88 88 89 90 91 89 78 72
12 10 9 8 10 12 13 15 19 20 23 24 25 27 25 22 23 26 31 35 38 40 42 45 48 51 55 59 63 66 70 75 80 83 85 88 89 89 91 93 91 80 72 66
15 14 13 13 13 15 17 18 21 24 27 29 31 32 32 32 33 34 36 38 40 41 43 46 51 56 60 62 64 69 74 78 82 85 87 90 90 91 94 92 84 73 65 58
19 18 18 18 19 21 22 23 25 29 29 31 34 36 38 38 36 36 37 38 40 42 46 50 55 60 62 64 68 73 76 80 84 86 87 89 89 93 93 83 71 60 54 41
22 22 22 22 24 25 27 26 30 32 32 35 37 38 40 40 39 41 42 42 44 47 50 53 58 60 63 67 72 75 78 81 83 84 87 89 93 92 83 69 58 50 41 32
26 25 25 26 27 29 31 31 34 35 36 39 40 44 44 44 44 45 46 47 48 50 52 56 58 61 66 70 73 75 79 81 82 86 89 91 90 83 69 57 46 36 27 27
29 29 30 30 32 34 34 35 36 38 39 41 43 45 44 44 46 47 49 50 52 52 55 58 61 65 68 71 74 78 80 81 85 87 89 89 81 71 58 47 37 29 30 31
33 34 35 35 37 37 39 40 41 42 43 48 49 48 48 48 48 48 51 52 51 53 57 60 65 67 71 75 79 79 80 84 87 87 89 83 73 59 49 39 32 30 32 34
38 40 38 40 40 41 41 43 44 45 45 49 52 49 50 52 51 53 53 50 53 56 60 64 67 72 76 79 79 78 82 85 84 86 84 74 61 51 42 33 28 30 34 33
39 40 42 41 40 41 44 45 46 46 48 55 54 53 55 53 54 56 54 54 57 61 64 68 72 76 77 76 77 81 84 83 83 81 76 66 53 44 35 29 29 32 34 31
41 43 44 43 41 42 45 46 50 52 57 60 56 55 56 55 57 57 57 58 62 66 69 73 75 75 73 74 78 81 81 83 81 74 69 58 46 37 31 28 28 31 31 30
38 44 43 47 45 47 46 47 51 56 60 57 55 56 55 56 57 58 59 61 65 70 74 75 74 72 72 77 79 79 81 80 74 68 61 51 38 32 29 29 29 31 32 31
34 39 41 41 42 43 43 47 52 55 56 55 55 54 57 59 59 60 63 68 71 73 74 73 70 71 76 78 78 82 79 75 67 60 52 43 32 29 29 29 30 31 33 31
Wind_Direction
148 159 157 149 145 126 140 228 159 106 288 329 296 303 300 311 296 297 301 300 309 319 321 324 313 312 315 318 315 315 316 309 307 312 308 304 302 300 298 300 304 305 304 303
162 163 161 172 161 152 197 212 180 165 298 281 276 285 291 295 299 304 306 299 316 321 318 321 317 309 307 310 311 305 301 302 305 302 298 299 298 302 302 302 303 305 305 306
168 174 182 159 168 174 196 213 217 228 241 252 270 276 286 289 286 293 298 309 305 298 309 310 305 306 304 302 300 299 300 300 298 297 298 299 303 303 302 304 304 306 307 308
170 172 159 155 190 163 182 210 227 245 238 244 274 276 280 278 286 308 325 302 299 298 269 280 301 308 303 300 300 302 300 297 296 296 298 300 302 303 304 304 305 306 306 305
180 183 179 185 205 198 207 208 218 231 236 241 257 259 270 283 297 300 290 296 262 293 284 287 305 308 302 303 301 298 294 291 294 299 300 302 304 305 304 304 304 305 304 303
190 190 193 201 211 221 229 233 237 243 249 250 252 259 269 281 284 282 279 291 290 288 293 290 296 299 301 302 299 291 288 292 295 296 300 304 304 302 301 302 301 301 300 300
207 213 215 222 226 231 237 244 250 256 255 251 244 249 261 274 280 284 284 286 292 296 294 291 306 300 300 298 293 293 297 300 302 303 301 300 302 304 305 305 308 311 311 309
216 212 209 205 208 193 197 208 235 252 253 247 256 261 258 271 278 279 286 297 302 293 302 309 302 298 299 301 296 293 298 302 306 307 309 310 312 312 311 310 309 309 309 309
182 181 165 159 160 152 151 169 273 271 261 259 266 275 280 284 286 292 298 292 292 293 298 299 299 305 308 311 310 310 310 313 314 315 313 312 311 311 311 311 311 310 310 308
156 168 157 142 139 123 94 62 35 9 327 296 294 290 291 292 292 291 292 293 296 302 308 307 297 303 307 311 311 314 316 315 314 312 312 310 310 312 313 312 311 310 308 305
156 146 146 151 143 109 63 43 22 19 15 348 318 317 308 300 303 297 300 303 301 304 307 302 305 310 311 312 313 313 312 313 311 309 309 311 310 310 310 310 310 309 308 308
156 157 160 165 155 156 14 8 0 359 1 4 348 343 340 330 328 325 316 312 308 295 299 299 307 310 309 311 311 311 310 309 307 309 310 310 312 312 312 313 313 312 311 310
166 166 165 179 200 228 330 329 329 339 340 346 344 340 346 345 335 325 316 312 302 297 295 297 304 305 306 305 306 309 308 306 307 310 312 313 314 313 314 314 313 311 311 310
185 188 198 214 231 281 306 315 333 339 338 338 331 336 338 335 329 321 313 306 297 287 293 300 300 300 303 308 310 308 307 310 312 313 313 313 314 315 315 314 314 315 311 307
211 222 237 256 267 283 302 315 325 328 328 331 331 333 330 324 315 308 307 304 305 304 303 302 302 307 308 309 310 310 311 312 312 312 314 314 316 317 317 316 316 313 309 307
232 245 254 265 273 285 296 304 313 317 326 330 329 328 327 325 323 322 318 313 310 307 304 303 306 308 309 309 310 311 312 312 313 314 316 317 319 318 317 317 315 313 311 309
242 249 259 268 274 282 293 304 312 318 326 326 324 326 324 323 320 318 313 309 307 304 303 305 306 307 309 310 311 311 313 314 316 317 317 318 319 319 318 317 317 315 314 313
247 258 263 269 275 283 293 306 311 316 323 322 321 321 320 319 317 315 313 312 306 302 302 304 306 309 311 311 313 314 315 315 316 317 319 320 320 319 318 319 318 318 318 319
252 259 265 270 276 284 293 303 310 315 322 318 321 322 320 317 313 314 314 312 306 304 305 307 308 310 312 314 315 315 316 317 318 320 320 320 319 319 321 319 319 319 324 317
256 261 267 273 280 286 292 301 305 314 315 316 318 318 314 310 310 311 311 312 309 308 307 308 310 312 313 315 317 317 318 319 320 321 320 320 320 322 321 318 317 314 317 313
260 265 270 278 283 287 292 297 303 310 310 315 315 313 310 308 308 309 312 311 310 306 307 310 313 314 316 318 318 319 319 320 321 320 321 320 321 321 319 317 312 309 310 309
262 267 273 276 283 287 291 296 304 307 308 310 310 309 308 307 308 312 313 310 307 310 312 314 314 316 318 319 319 320 320 321 321 320 320 321 320 319 316 314 308 310 312 307
266 268 274 278 284 289 292 298 304 303 304 308 309 307 306 307 310 313 310 309 310 313 314 315 317 319 320 319 319 320 321 320 320 319 320 321 318 316 314 310 308 311 314 309
271 274 278 282 284 289 292 300 301 302 305 308 308 306 307 308 311 310 310 311 314 314 315 318 319 318 318 318 319 320 319 319 320 320 320 319 315 312 311 307 310 313 314 311
277 280 283 283 290 290 299 300 300 302 305 306 303 303 306 308 308 308 311 313 313 316 317 318 317 317 317 318 319 318 318 319 322 321 319 317 311 309 307 304 305 309 312 311
283 282 284 287 288 292 295 295 296 299 302 300 301 304 305 307 308 309 310 312 314 316 316 316 316 316 318 318 317 316 318 321 322 320 317 314 308 307 308 306 303 307 308 309